Time,TemperatureF,DewpointF,PressureIn,WindDirection,WindDirectionDegrees,WindSpeedMPH,WindSpeedGustMPH,Humidity,HourlyPrecipIn,Conditions,Clouds,dailyrainin,SoftwareType,DateUTC
2013-03-24 00:00:00,41.1,32.8,30.03,WNW,293,0.0,0.0,72,0.00,,SKC,0.00,VWS V14.01,2013-03-24 07:00:00,
2013-03-24 00:04:00,41.1,32.8,30.03,WNW,293,0.0,0.0,72,0.00,,SKC,0.00,VWS V14.01,2013-03-24 07:04:00,
2013-03-24 00:09:00,40.8,32.5,30.03,WNW,293,0.0,0.0,72,0.00,,SKC,0.00,VWS V14.01,2013-03-24 07:09:00,
2013-03-24 00:14:00,40.6,32.3,30.02,WNW,293,0.0,0.0,72,0.00,,SKC,0.00,VWS V14.01,2013-03-24 07:14:00,
2013-03-24 00:19:00,40.5,32.2,30.02,WNW,293,0.0,0.0,72,0.00,,SKC,0.00,VWS V14.01,2013-03-24 07:19:00,
2013-03-24 00:24:00,40.5,32.5,30.02,WNW,293,0.0,0.0,73,0.00,,SKC,0.00,VWS V14.01,2013-03-24 07:24:00,
2013-03-24 00:29:00,40.3,32.3,30.02,WNW,293,0.0,0.0,73,0.00,,SKC,0.00,VWS V14.01,2013-03-24 07:29:00,
2013-03-24 00:30:00,40.3,32.3,30.02,WNW,293,0.0,0.0,73,0.00,,SKC,0.00,VWS V14.01,2013-03-24 07:30:00,
2013-03-24 00:34:00,40.3,32.3,30.02,WNW,293,0.0,0.0,73,0.00,,SKC,0.00,VWS V14.01,2013-03-24 07:34:00,
2013-03-24 00:40:00,40.2,32.2,30.02,WNW,293,0.0,0.0,73,0.00,,SKC,0.00,VWS V14.01,2013-03-24 07:40:00,
2013-03-24 00:45:00,40.3,32.3,30.03,WNW,293,0.0,0.0,73,0.00,,SKC,0.00,VWS V14.01,2013-03-24 07:45:00,
2013-03-24 00:50:00,40.3,32.0,30.03,WNW,293,0.0,0.0,72,0.00,,SKC,0.00,VWS V14.01,2013-03-24 07:50:00,
2013-03-24 00:55:00,40.3,32.0,30.03,WNW,293,0.0,0.0,72,0.00,,SKC,0.00,VWS V14.01,2013-03-24 07:55:00,
2013-03-24 01:00:00,40.6,32.0,30.03,WNW,293,0.0,0.0,71,0.00,,SKC,0.00,VWS V14.01,2013-03-24 08:00:00,
2013-03-24 01:05:00,40.8,31.8,30.03,WNW,293,0.0,0.0,70,0.00,,SKC,0.00,VWS V14.01,2013-03-24 08:05:00,
2013-03-24 01:11:00,40.8,31.8,30.03,WNW,293,0.0,0.0,70,0.00,,SKC,0.00,VWS V14.01,2013-03-24 08:11:00,
2013-03-24 01:16:00,40.6,32.0,30.02,WNW,293,0.0,0.0,71,0.00,,SKC,0.00,VWS V14.01,2013-03-24 08:16:00,
2013-03-24 01:22:00,40.3,31.7,30.02,WNW,293,0.0,0.0,71,0.00,,SKC,0.00,VWS V14.01,2013-03-24 08:22:00,
2013-03-24 01:27:00,40.3,31.7,30.02,WNW,293,0.0,0.0,71,0.00,,SKC,0.00,VWS V14.01,2013-03-24 08:27:00,
2013-03-24 01:30:00,40.3,31.3,30.03,WNW,293,0.0,0.0,70,0.00,,SKC,0.00,VWS V14.01,2013-03-24 08:30:00,
2013-03-24 01:32:00,40.3,31.3,30.03,WNW,293,0.0,0.0,70,0.00,,SKC,0.00,VWS V14.01,2013-03-24 08:32:00,
2013-03-24 01:37:00,40.2,31.9,30.03,WNW,293,0.0,0.0,72,0.00,,SKC,0.00,VWS V14.01,2013-03-24 08:37:00,
2013-03-24 01:42:00,39.9,31.6,30.03,WNW,293,0.0,0.0,72,0.00,,SKC,0.00,VWS V14.01,2013-03-24 08:42:00,
2013-03-24 01:47:00,39.6,31.7,30.03,WNW,293,0.0,0.0,73,0.00,,SKC,0.00,VWS V14.01,2013-03-24 08:47:00,
2013-03-24 01:52:00,39.6,31.3,30.03,WNW,293,0.0,0.0,72,0.00,,SKC,0.00,VWS V14.01,2013-03-24 08:52:00,
2013-03-24 01:57:00,39.6,31.3,30.03,WNW,293,0.0,0.0,72,0.00,,SKC,0.00,VWS V14.01,2013-03-24 08:57:00,
2013-03-24 02:00:00,39.5,31.2,30.03,WNW,293,0.0,0.0,72,0.00,,SKC,0.00,VWS V14.01,2013-03-24 09:00:00,
2013-03-24 02:03:00,39.5,31.2,30.03,WNW,293,0.0,0.0,72,0.00,,SKC,0.00,VWS V14.01,2013-03-24 09:03:00,
2013-03-24 02:08:00,39.3,31.0,30.03,WNW,293,0.0,0.0,72,0.00,,SKC,0.00,VWS V14.01,2013-03-24 09:08:00,
2013-03-24 02:13:00,39.3,31.0,30.03,WNW,293,0.0,0.0,72,0.00,,SKC,0.00,VWS V14.01,2013-03-24 09:13:00,
2013-03-24 02:18:00,39.3,31.4,30.03,WNW,293,0.0,0.0,73,0.00,,SKC,0.00,VWS V14.01,2013-03-24 09:18:00,
2013-03-24 02:23:00,39.3,31.4,30.03,WNW,293,0.0,0.0,73,0.00,,SKC,0.00,VWS V14.01,2013-03-24 09:23:00,
2013-03-24 02:28:00,39.3,31.4,30.03,WNW,293,0.0,0.0,73,0.00,,SKC,0.00,VWS V14.01,2013-03-24 09:28:00,
2013-03-24 02:30:00,39.2,31.3,30.03,WNW,293,0.0,0.0,73,0.00,,SKC,0.00,VWS V14.01,2013-03-24 09:30:00,
2013-03-24 02:33:00,39.2,31.3,30.03,WNW,293,0.0,0.0,73,0.00,,SKC,0.00,VWS V14.01,2013-03-24 09:33:00,
2013-03-24 02:38:00,39.2,31.3,30.03,WNW,293,0.0,0.0,73,0.00,,SKC,0.00,VWS V14.01,2013-03-24 09:38:00,
2013-03-24 02:43:00,39.2,31.3,30.03,WNW,293,0.0,0.0,73,0.00,,SKC,0.00,VWS V14.01,2013-03-24 09:43:00,
2013-03-24 02:48:00,39.1,31.2,30.03,WNW,293,0.0,0.0,73,0.00,,SKC,0.00,VWS V14.01,2013-03-24 09:48:00,
2013-03-24 02:53:00,39.1,31.2,30.03,WNW,293,0.0,0.0,73,0.00,,SKC,0.00,VWS V14.01,2013-03-24 09:53:00,
2013-03-24 02:58:00,39.1,31.2,30.03,WNW,293,0.0,0.0,73,0.00,,SKC,0.00,VWS V14.01,2013-03-24 09:58:00,
2013-03-24 03:00:00,39.1,31.2,30.03,WNW,293,0.0,0.0,73,0.00,,SKC,0.00,VWS V14.01,2013-03-24 10:00:00,
2013-03-24 03:04:00,39.1,31.2,30.03,WNW,293,0.0,0.0,73,0.00,,SKC,0.00,VWS V14.01,2013-03-24 10:04:00,
2013-03-24 03:09:00,39.1,31.2,30.03,WNW,293,0.0,0.0,73,0.00,,SKC,0.00,VWS V14.01,2013-03-24 10:09:00,
2013-03-24 03:14:00,39.1,30.9,30.02,WNW,293,0.0,0.0,72,0.00,,SKC,0.00,VWS V14.01,2013-03-24 10:14:00,
2013-03-24 03:19:00,39.1,31.2,30.02,WNW,293,0.0,0.0,73,0.00,,SKC,0.00,VWS V14.01,2013-03-24 10:19:00,
2013-03-24 03:24:00,38.6,31.0,30.02,WNW,293,0.0,0.0,74,0.00,,SKC,0.00,VWS V14.01,2013-03-24 10:24:00,
2013-03-24 03:29:00,38.5,31.0,30.02,WNW,293,0.0,0.0,74,0.00,,SKC,0.00,VWS V14.01,2013-03-24 10:29:00,
2013-03-24 03:30:00,38.5,31.0,30.02,WNW,293,0.0,0.0,74,0.00,,SKC,0.00,VWS V14.01,2013-03-24 10:30:00,
2013-03-24 03:34:00,38.5,31.0,30.02,WNW,293,0.0,0.0,74,0.00,,SKC,0.00,VWS V14.01,2013-03-24 10:34:00,
2013-03-24 03:39:00,38.5,30.6,30.02,WNW,293,0.0,0.0,73,0.00,,SKC,0.00,VWS V14.01,2013-03-24 10:39:00,
2013-03-24 03:44:00,38.5,30.3,30.01,WNW,293,0.0,0.0,72,0.00,,SKC,0.00,VWS V14.01,2013-03-24 10:44:00,
2013-03-24 03:49:00,38.6,30.7,30.01,WNW,293,0.0,0.0,73,0.00,,SKC,0.00,VWS V14.01,2013-03-24 10:49:00,
2013-03-24 03:54:00,38.5,30.6,30.01,WNW,293,0.0,0.0,73,0.00,,SKC,0.00,VWS V14.01,2013-03-24 10:54:00,
2013-03-24 03:59:00,38.5,30.6,30.01,WNW,293,0.0,0.0,73,0.00,,SKC,0.00,VWS V14.01,2013-03-24 10:59:00,
2013-03-24 04:00:00,38.5,30.6,30.01,WNW,293,0.0,0.0,73,0.00,,SKC,0.00,VWS V14.01,2013-03-24 11:00:00,
2013-03-24 04:05:00,38.5,30.6,30.01,WNW,293,0.0,0.0,73,0.00,,SKC,0.00,VWS V14.01,2013-03-24 11:05:00,
2013-03-24 04:10:00,38.5,30.3,30.01,WNW,293,0.0,0.0,72,0.00,,SKC,0.00,VWS V14.01,2013-03-24 11:10:00,
2013-03-24 04:15:00,38.5,30.3,30.01,WNW,293,0.0,0.0,72,0.00,,SKC,0.00,VWS V14.01,2013-03-24 11:15:00,
2013-03-24 04:20:00,38.6,30.4,30.01,WNW,293,0.0,0.0,72,0.00,,SKC,0.00,VWS V14.01,2013-03-24 11:20:00,
2013-03-24 04:25:00,38.6,30.4,30.01,WNW,293,0.0,0.0,72,0.00,,SKC,0.00,VWS V14.01,2013-03-24 11:25:00,
2013-03-24 04:30:00,38.5,30.3,30.01,WNW,293,0.0,0.0,72,0.00,,SKC,0.00,VWS V14.01,2013-03-24 11:30:00,
2013-03-24 04:35:00,38.3,30.1,30.01,WNW,293,0.0,0.0,72,0.00,,SKC,0.00,VWS V14.01,2013-03-24 11:35:00,
2013-03-24 04:41:00,38.3,30.1,30.01,WNW,293,0.0,0.0,72,0.00,,SKC,0.00,VWS V14.01,2013-03-24 11:41:00,
2013-03-24 04:49:00,38.6,30.0,30.01,WNW,293,0.0,0.0,71,0.00,,SKC,0.00,VWS V14.01,2013-03-24 11:49:00,
2013-03-24 04:54:00,38.8,29.9,30.01,WNW,293,0.0,0.0,70,0.00,,SKC,0.00,VWS V14.01,2013-03-24 11:54:00,
2013-03-24 04:59:00,38.9,30.0,30.01,WNW,293,0.0,0.0,70,0.00,,SKC,0.00,VWS V14.01,2013-03-24 11:59:00,
2013-03-24 05:00:00,38.9,30.0,30.01,WNW,293,0.0,0.0,70,0.00,,SKC,0.00,VWS V14.01,2013-03-24 12:00:00,
2013-03-24 05:05:00,38.9,29.6,30.01,WNW,293,0.0,0.0,69,0.00,,SKC,0.00,VWS V14.01,2013-03-24 12:05:00,
2013-03-24 05:10:00,38.9,29.6,30.01,WNW,293,0.0,0.0,69,0.00,,SKC,0.00,VWS V14.01,2013-03-24 12:10:00,
2013-03-24 05:15:00,38.9,30.0,30.02,WNW,293,0.0,0.0,70,0.00,,SKC,0.00,VWS V14.01,2013-03-24 12:15:00,
2013-03-24 05:20:00,38.8,29.9,30.02,WNW,293,0.0,0.0,70,0.00,,SKC,0.00,VWS V14.01,2013-03-24 12:20:00,
2013-03-24 05:25:00,38.5,29.9,30.02,WNW,293,0.0,0.0,71,0.00,,SKC,0.00,VWS V14.01,2013-03-24 12:25:00,
2013-03-24 05:30:00,38.5,29.9,30.02,WNW,293,0.0,0.0,71,0.00,,SKC,0.00,VWS V14.01,2013-03-24 12:30:00,
2013-03-24 05:35:00,38.3,29.7,30.02,WNW,293,0.0,0.0,71,0.00,,SKC,0.00,VWS V14.01,2013-03-24 12:35:00,
2013-03-24 05:41:00,38.2,30.0,30.02,WNW,293,0.0,0.0,72,0.00,,SKC,0.00,VWS V14.01,2013-03-24 12:41:00,
2013-03-24 05:46:00,38.0,29.8,30.02,WNW,293,0.0,0.0,72,0.00,,SKC,0.00,VWS V14.01,2013-03-24 12:46:00,
2013-03-24 05:51:00,38.0,29.8,30.02,WNW,293,0.0,0.0,72,0.00,,SKC,0.00,VWS V14.01,2013-03-24 12:51:00,
2013-03-24 05:56:00,38.0,29.5,30.02,WNW,293,0.0,0.0,71,0.00,,SKC,0.00,VWS V14.01,2013-03-24 12:56:00,
2013-03-24 06:00:00,38.0,29.8,30.02,WNW,293,0.0,0.0,72,0.00,,SKC,0.00,VWS V14.01,2013-03-24 13:00:00,
2013-03-24 06:01:00,38.0,29.8,30.02,WNW,293,0.0,0.0,72,0.00,,SKC,0.00,VWS V14.01,2013-03-24 13:01:00,
2013-03-24 06:07:00,38.0,29.5,30.02,WNW,293,0.0,0.0,71,0.00,,SKC,0.00,VWS V14.01,2013-03-24 13:07:00,
2013-03-24 06:13:00,38.0,29.8,30.02,WNW,293,0.0,0.0,72,0.00,,SKC,0.00,VWS V14.01,2013-03-24 13:13:00,
2013-03-24 06:18:00,38.0,29.8,30.03,WNW,293,0.0,0.0,72,0.00,,SKC,0.00,VWS V14.01,2013-03-24 13:18:00,
2013-03-24 06:23:00,37.9,30.0,30.03,WNW,293,0.0,0.0,73,0.00,,SKC,0.00,VWS V14.01,2013-03-24 13:23:00,
2013-03-24 06:28:00,37.9,29.7,30.03,WNW,293,0.0,0.0,72,0.00,,SKC,0.00,VWS V14.01,2013-03-24 13:28:00,
2013-03-24 06:30:00,37.9,29.7,30.03,WNW,293,0.0,0.0,72,0.00,,SKC,0.00,VWS V14.01,2013-03-24 13:30:00,
2013-03-24 06:33:00,38.0,29.5,30.03,WNW,293,0.0,0.0,71,0.00,,SKC,0.00,VWS V14.01,2013-03-24 13:33:00,
2013-03-24 06:38:00,38.2,29.6,30.03,WNW,293,0.0,0.0,71,0.00,,SKC,0.00,VWS V14.01,2013-03-24 13:38:00,
2013-03-24 06:43:00,38.2,29.3,30.03,WNW,293,0.0,0.0,70,0.00,,SKC,0.00,VWS V14.01,2013-03-24 13:43:00,
2013-03-24 06:49:00,38.3,29.4,30.03,WNW,293,0.0,0.0,70,0.00,,SKC,0.00,VWS V14.01,2013-03-24 13:49:00,
2013-03-24 06:54:00,38.0,29.8,30.03,WNW,293,0.0,0.0,72,0.00,,SKC,0.00,VWS V14.01,2013-03-24 13:54:00,
2013-03-24 06:59:00,37.8,29.6,30.03,WNW,293,0.0,0.0,72,0.00,,SKC,0.00,VWS V14.01,2013-03-24 13:59:00,
2013-03-24 07:00:00,37.8,29.3,30.03,WNW,293,0.0,0.0,71,0.00,,SKC,0.00,VWS V14.01,2013-03-24 14:00:00,
2013-03-24 07:04:00,38.0,29.5,30.03,WNW,293,0.0,0.0,71,0.00,,SKC,0.00,VWS V14.01,2013-03-24 14:04:00,
2013-03-24 07:09:00,38.3,29.4,30.03,WNW,293,0.0,0.0,70,0.00,,SKC,0.00,VWS V14.01,2013-03-24 14:09:00,
2013-03-24 07:14:00,38.5,29.6,30.04,WNW,293,0.0,0.0,70,0.00,,SKC,0.00,VWS V14.01,2013-03-24 14:14:00,
2013-03-24 07:19:00,38.6,29.7,30.04,WNW,293,0.0,0.0,70,0.00,,SKC,0.00,VWS V14.01,2013-03-24 14:19:00,
2013-03-24 07:25:00,38.9,29.2,30.04,WNW,293,0.0,0.0,68,0.00,,SKC,0.00,VWS V14.01,2013-03-24 14:25:00,
2013-03-24 07:29:00,39.2,29.5,30.04,WNW,293,0.0,0.0,68,0.00,,SKC,0.00,VWS V14.01,2013-03-24 14:29:00,
2013-03-24 07:30:00,39.2,29.5,30.04,WNW,293,0.0,0.0,68,0.00,,SKC,0.00,VWS V14.01,2013-03-24 14:30:00,
2013-03-24 07:35:00,39.2,29.9,30.04,WNW,293,0.0,0.0,69,0.00,,SKC,0.00,VWS V14.01,2013-03-24 14:35:00,
2013-03-24 07:40:00,39.2,29.9,30.04,WNW,293,0.0,0.0,69,0.00,,SKC,0.00,VWS V14.01,2013-03-24 14:40:00,
2013-03-24 07:45:00,39.3,30.0,30.05,WNW,293,0.0,1.0,69,0.00,,SKC,0.00,VWS V14.01,2013-03-24 14:45:00,
2013-03-24 07:50:00,39.6,29.9,30.05,WNW,293,0.0,1.0,68,0.00,,SKC,0.00,VWS V14.01,2013-03-24 14:50:00,
2013-03-24 07:55:00,40.2,30.1,30.05,WNW,293,0.0,1.0,67,0.00,,SKC,0.00,VWS V14.01,2013-03-24 14:55:00,
2013-03-24 08:00:00,40.8,30.0,30.04,WNW,293,0.0,0.0,65,0.00,,SKC,0.00,VWS V14.01,2013-03-24 15:00:00,
2013-03-24 08:06:00,41.5,30.2,30.04,WNW,293,0.0,0.0,64,0.00,,SKC,0.00,VWS V14.01,2013-03-24 15:06:00,
2013-03-24 08:11:00,41.9,30.6,30.04,WNW,293,0.0,0.0,64,0.00,,SKC,0.00,VWS V14.01,2013-03-24 15:11:00,
2013-03-24 08:16:00,42.6,30.5,30.06,WNW,293,0.0,0.0,62,0.00,,SKC,0.00,VWS V14.01,2013-03-24 15:16:00,
2013-03-24 08:21:00,43.8,31.6,30.06,WNW,293,0.0,0.0,62,0.00,,SKC,0.00,VWS V14.01,2013-03-24 15:21:00,
2013-03-24 08:27:00,45.8,32.3,30.06,WNW,293,0.0,0.0,59,0.00,,SKC,0.00,VWS V14.01,2013-03-24 15:27:00,
2013-03-24 08:30:00,46.7,32.7,30.04,WNW,293,0.0,0.0,58,0.00,,SKC,0.00,VWS V14.01,2013-03-24 15:30:00,
2013-03-24 08:32:00,47.6,33.6,30.04,WNW,293,0.0,0.0,58,0.00,,SKC,0.00,VWS V14.01,2013-03-24 15:32:00,
2013-03-24 08:37:00,48.8,32.4,30.04,WNW,293,0.0,0.0,53,0.00,,SKC,0.00,VWS V14.01,2013-03-24 15:37:00,
2013-03-24 08:42:00,49.6,34.6,30.04,WNW,293,0.0,0.0,56,0.00,,SKC,0.00,VWS V14.01,2013-03-24 15:42:00,
2013-03-24 08:48:00,50.2,32.8,30.04,WNW,293,0.0,1.0,51,0.00,,SKC,0.00,VWS V14.01,2013-03-24 15:48:00,
2013-03-24 08:53:00,50.4,32.5,30.04,WNW,293,0.0,1.0,50,0.00,,SKC,0.00,VWS V14.01,2013-03-24 15:53:00,
2013-03-24 08:58:00,50.5,32.6,30.04,WNW,293,0.0,1.0,50,0.00,,SKC,0.00,VWS V14.01,2013-03-24 15:58:00,
2013-03-24 09:00:00,50.5,33.1,30.03,WNW,293,0.0,1.0,51,0.00,,SKC,0.00,VWS V14.01,2013-03-24 16:00:00,
2013-03-24 09:03:00,50.7,33.2,30.03,WNW,293,0.0,0.0,51,0.00,,SKC,0.00,VWS V14.01,2013-03-24 16:03:00,
2013-03-24 09:08:00,51.3,33.8,30.03,WNW,293,0.0,0.0,51,0.00,,SKC,0.00,VWS V14.01,2013-03-24 16:08:00,
2013-03-24 09:13:00,51.6,34.1,30.03,WNW,293,0.0,0.0,51,0.00,,SKC,0.00,VWS V14.01,2013-03-24 16:13:00,
2013-03-24 09:18:00,51.6,34.1,30.04,WNW,293,0.0,1.0,51,0.00,,SKC,0.00,VWS V14.01,2013-03-24 16:18:00,
2013-03-24 09:23:00,51.7,33.7,30.04,WNW,293,0.0,1.0,50,0.00,,SKC,0.00,VWS V14.01,2013-03-24 16:23:00,
2013-03-24 09:29:00,52.2,34.6,30.04,WNW,293,0.0,1.0,51,0.00,,SKC,0.00,VWS V14.01,2013-03-24 16:29:00,
2013-03-24 09:30:00,52.3,34.7,30.03,WNW,293,0.0,1.0,51,0.00,,SKC,0.00,VWS V14.01,2013-03-24 16:30:00,
2013-03-24 09:34:00,52.8,34.2,30.03,WNW,293,0.0,1.0,49,0.00,,SKC,0.00,VWS V14.01,2013-03-24 16:34:00,
2013-03-24 09:39:00,53.6,34.4,30.03,WNW,293,0.0,1.0,48,0.00,,SKC,0.00,VWS V14.01,2013-03-24 16:39:00,
2013-03-24 09:44:00,54.1,35.4,30.02,WNW,293,0.0,1.0,49,0.00,,SKC,0.00,VWS V14.01,2013-03-24 16:44:00,
2013-03-24 09:49:00,55.3,36.0,30.02,WNW,293,0.0,1.0,48,0.00,,SKC,0.00,VWS V14.01,2013-03-24 16:49:00,
2013-03-24 09:54:00,55.6,35.2,30.02,WNW,293,0.0,1.0,46,0.00,,SKC,0.00,VWS V14.01,2013-03-24 16:54:00,
2013-03-24 09:59:00,55.9,35.4,30.02,WNW,293,0.0,1.0,46,0.00,,SKC,0.00,VWS V14.01,2013-03-24 16:59:00,
2013-03-24 10:00:00,55.9,35.4,30.02,WNW,293,0.0,1.0,46,0.00,,SKC,0.00,VWS V14.01,2013-03-24 17:00:00,
2013-03-24 10:05:00,56.5,34.3,30.02,WNW,293,0.0,0.0,43,0.00,,SKC,0.00,VWS V14.01,2013-03-24 17:05:00,
2013-03-24 10:10:00,57.3,32.6,30.02,WNW,293,0.0,0.0,39,0.00,,SKC,0.00,VWS V14.01,2013-03-24 17:10:00,
2013-03-24 10:15:00,58.3,31.5,30.02,WNW,293,0.0,1.0,36,0.00,,SKC,0.00,VWS V14.01,2013-03-24 17:15:00,
2013-03-24 10:20:00,59.2,33.0,30.02,WNW,293,0.0,1.0,37,0.00,,SKC,0.00,VWS V14.01,2013-03-24 17:20:00,
2013-03-24 10:25:00,59.3,33.7,30.02,WNW,293,0.0,1.0,38,0.00,,SKC,0.00,VWS V14.01,2013-03-24 17:25:00,
2013-03-24 10:30:00,59.9,32.2,30.02,WNW,289,0.0,0.0,35,0.00,,SKC,0.00,VWS V14.01,2013-03-24 17:30:00,
2013-03-24 10:35:00,60.9,33.1,30.02,WNW,289,0.0,0.0,35,0.00,,SKC,0.00,VWS V14.01,2013-03-24 17:35:00,
2013-03-24 10:41:00,62.0,33.3,30.02,WNW,289,0.0,1.0,34,0.00,,SKC,0.00,VWS V14.01,2013-03-24 17:41:00,
2013-03-24 10:46:00,62.4,30.6,30.01,SE,133,1.0,4.0,30,0.00,,SKC,0.00,VWS V14.01,2013-03-24 17:46:00,
2013-03-24 10:52:00,62.6,30.8,30.01,SE,132,0.0,4.0,30,0.00,,SKC,0.00,VWS V14.01,2013-03-24 17:52:00,
2013-03-24 10:57:00,63.2,33.6,30.01,SE,132,0.0,4.0,33,0.00,,SKC,0.00,VWS V14.01,2013-03-24 17:57:00,
2013-03-24 11:00:00,63.5,33.1,30.00,SE,132,0.0,4.0,32,0.00,,SKC,0.00,VWS V14.01,2013-03-24 18:00:00,
2013-03-24 11:02:00,63.4,29.8,30.00,SE,136,0.0,3.0,28,0.00,,SKC,0.00,VWS V14.01,2013-03-24 18:02:00,
2013-03-24 11:07:00,63.2,31.3,30.00,SE,144,0.0,3.0,30,0.00,,SKC,0.00,VWS V14.01,2013-03-24 18:07:00,
2013-03-24 11:13:00,63.4,32.3,30.00,WNW,285,0.0,3.0,31,0.00,,SKC,0.00,VWS V14.01,2013-03-24 18:13:00,
2013-03-24 11:18:00,63.5,32.3,30.01,WNW,298,0.0,3.0,31,0.00,,SKC,0.00,VWS V14.01,2013-03-24 18:18:00,
2013-03-24 11:23:00,63.2,31.3,30.01,WNW,302,0.0,3.0,30,0.00,,SKC,0.00,VWS V14.01,2013-03-24 18:23:00,
2013-03-24 11:28:00,63.1,31.2,30.01,WNW,302,0.0,3.0,30,0.00,,SKC,0.00,VWS V14.01,2013-03-24 18:28:00,
2013-03-24 11:30:00,63.2,30.4,30.00,WNW,302,0.0,3.0,29,0.00,,SKC,0.00,VWS V14.01,2013-03-24 18:30:00,
2013-03-24 11:34:00,63.4,32.3,30.00,WNW,288,0.0,4.0,31,0.00,,SKC,0.00,VWS V14.01,2013-03-24 18:34:00,
2013-03-24 11:39:00,63.2,31.3,30.00,WNW,288,0.0,4.0,30,0.00,,SKC,0.00,VWS V14.01,2013-03-24 18:39:00,
2013-03-24 11:44:00,63.2,30.4,30.00,SW,232,0.0,4.0,29,0.00,,SKC,0.00,VWS V14.01,2013-03-24 18:44:00,
2013-03-24 11:49:00,63.7,30.9,30.00,WSW,248,0.0,4.0,29,0.00,,SKC,0.00,VWS V14.01,2013-03-24 18:49:00,
2013-03-24 11:54:00,63.7,31.7,30.00,West,264,0.0,4.0,30,0.00,,SKC,0.00,VWS V14.01,2013-03-24 18:54:00,
2013-03-24 11:59:00,64.7,32.6,30.00,West,263,2.0,4.0,30,0.00,,SKC,0.00,VWS V14.01,2013-03-24 18:59:00,
2013-03-24 12:00:00,64.7,32.6,30.00,West,263,2.0,4.0,30,0.00,,SKC,0.00,VWS V14.01,2013-03-24 19:00:00,
2013-03-24 12:05:00,64.8,31.0,30.00,WNW,288,0.0,4.0,28,0.00,,SKC,0.00,VWS V14.01,2013-03-24 19:05:00,
2013-03-24 12:10:00,65.2,30.4,30.00,NW,326,0.0,4.0,27,0.00,,SKC,0.00,VWS V14.01,2013-03-24 19:10:00,
2013-03-24 12:15:00,65.5,31.6,29.99,NW,323,0.0,4.0,28,0.00,,SKC,0.00,VWS V14.01,2013-03-24 19:15:00,
2013-03-24 12:20:00,65.3,31.4,29.99,WNW,288,0.0,4.0,28,0.00,,SKC,0.00,VWS V14.01,2013-03-24 19:20:00,
2013-03-24 12:25:00,64.8,31.0,29.99,West,273,0.0,4.0,28,0.00,,SKC,0.00,VWS V14.01,2013-03-24 19:25:00,
2013-03-24 12:30:00,64.7,30.0,29.98,SW,221,0.0,3.0,27,0.00,,SKC,0.00,VWS V14.01,2013-03-24 19:30:00,
2013-03-24 12:36:00,64.8,30.1,29.98,WNW,294,0.0,4.0,27,0.00,,SKC,0.00,VWS V14.01,2013-03-24 19:36:00,
2013-03-24 12:41:00,65.3,33.9,29.98,WSW,245,1.0,4.0,31,0.00,,SKC,0.00,VWS V14.01,2013-03-24 19:41:00,
2013-03-24 12:46:00,65.6,30.8,29.98,WSW,250,0.0,4.0,27,0.00,,SKC,0.00,VWS V14.01,2013-03-24 19:46:00,
2013-03-24 12:51:00,66.0,31.1,29.98,WNW,296,0.0,4.0,27,0.00,,SKC,0.00,VWS V14.01,2013-03-24 19:51:00,
2013-03-24 12:56:00,66.1,31.2,29.98,NW,308,0.0,7.0,27,0.00,,SKC,0.00,VWS V14.01,2013-03-24 19:56:00,
2013-03-24 13:00:00,66.3,32.2,29.98,WSW,250,1.0,7.0,28,0.00,,SKC,0.00,VWS V14.01,2013-03-24 20:00:00,
2013-03-24 13:01:00,66.3,32.2,29.98,WSW,255,0.0,3.0,28,0.00,,SKC,0.00,VWS V14.01,2013-03-24 20:01:00,
2013-03-24 13:06:00,66.4,32.3,29.98,NW,325,1.0,6.0,28,0.00,,SKC,0.00,VWS V14.01,2013-03-24 20:06:00,
2013-03-24 13:11:00,66.1,32.1,29.98,NW,306,7.0,10.0,28,0.00,,SKC,0.00,VWS V14.01,2013-03-24 20:11:00,
2013-03-24 13:17:00,66.1,33.0,29.98,NW,306,0.0,10.0,29,0.00,,SKC,0.00,VWS V14.01,2013-03-24 20:17:00,
2013-03-24 13:22:00,66.3,33.1,29.98,NW,320,1.0,10.0,29,0.00,,SKC,0.00,VWS V14.01,2013-03-24 20:22:00,
2013-03-24 13:27:00,66.0,34.5,29.98,WNW,285,3.0,10.0,31,0.00,,SKC,0.00,VWS V14.01,2013-03-24 20:27:00,
2013-03-24 13:30:00,65.5,32.4,29.98,WNW,288,4.0,10.0,29,0.00,,SKC,0.00,VWS V14.01,2013-03-24 20:30:00,
2013-03-24 13:32:00,65.3,33.9,29.98,NW,317,0.0,4.0,31,0.00,,SKC,0.00,VWS V14.01,2013-03-24 20:32:00,
2013-03-24 13:37:00,65.5,34.1,29.98,NNW,331,0.0,4.0,31,0.00,,SKC,0.00,VWS V14.01,2013-03-24 20:37:00,
2013-03-24 13:42:00,65.5,33.3,29.98,West,279,0.0,6.0,30,0.00,,SKC,0.00,VWS V14.01,2013-03-24 20:42:00,
2013-03-24 13:47:00,65.5,34.9,29.98,North,350,0.0,7.0,32,0.00,,SKC,0.00,VWS V14.01,2013-03-24 20:47:00,
2013-03-24 13:53:00,66.1,36.2,29.98,West,272,0.0,7.0,33,0.00,,SKC,0.00,VWS V14.01,2013-03-24 20:53:00,
2013-03-24 13:58:00,66.8,36.8,29.98,WNW,285,0.0,7.0,33,0.00,,SKC,0.00,VWS V14.01,2013-03-24 20:58:00,
2013-03-24 14:00:00,66.8,35.2,29.97,WNW,282,4.0,7.0,31,0.00,,SKC,0.00,VWS V14.01,2013-03-24 21:00:00,
2013-03-24 14:03:00,66.1,34.6,29.97,NW,326,0.0,6.0,31,0.00,,SKC,0.00,VWS V14.01,2013-03-24 21:03:00,
2013-03-24 14:08:00,66.0,37.6,29.97,WNW,291,0.0,6.0,35,0.00,,SKC,0.00,VWS V14.01,2013-03-24 21:08:00,
2013-03-24 14:14:00,66.0,35.3,29.97,SW,225,3.0,6.0,32,0.00,,SKC,0.00,VWS V14.01,2013-03-24 21:14:00,
2013-03-24 14:19:00,65.8,34.3,29.97,West,259,0.0,7.0,31,0.00,,SKC,0.00,VWS V14.01,2013-03-24 21:19:00,
2013-03-24 14:24:00,65.5,33.3,29.97,West,266,0.0,11.0,30,0.00,,SKC,0.00,VWS V14.01,2013-03-24 21:24:00,
2013-03-24 14:29:00,65.3,33.1,29.97,WNW,300,6.0,11.0,30,0.00,,SKC,0.00,VWS V14.01,2013-03-24 21:29:00,
2013-03-24 14:30:00,65.3,33.1,29.97,West,265,1.0,11.0,30,0.00,,SKC,0.00,VWS V14.01,2013-03-24 21:30:00,
2013-03-24 14:34:00,65.5,32.4,29.97,WNW,288,2.0,5.0,29,0.00,,SKC,0.00,VWS V14.01,2013-03-24 21:34:00,
2013-03-24 14:39:00,65.3,33.1,29.97,NW,318,0.0,6.0,30,0.00,,SKC,0.00,VWS V14.01,2013-03-24 21:39:00,
2013-03-24 14:45:00,65.6,34.2,29.96,WSW,252,0.0,6.0,31,0.00,,SKC,0.00,VWS V14.01,2013-03-24 21:45:00,
2013-03-24 14:50:00,66.0,32.9,29.96,NW,307,0.0,9.0,29,0.00,,SKC,0.00,VWS V14.01,2013-03-24 21:50:00,
2013-03-24 14:55:00,65.8,33.5,29.96,NW,311,2.0,9.0,30,0.00,,SKC,0.00,VWS V14.01,2013-03-24 21:55:00,
2013-03-24 15:00:00,66.0,35.3,29.95,WNW,291,0.0,3.0,32,0.00,,SKC,0.00,VWS V14.01,2013-03-24 22:00:00,
2013-03-24 15:05:00,66.4,34.0,29.95,WNW,303,0.0,4.0,30,0.00,,SKC,0.00,VWS V14.01,2013-03-24 22:05:00,
2013-03-24 15:10:00,66.4,32.3,29.95,WNW,290,0.0,4.0,28,0.00,,SKC,0.00,VWS V14.01,2013-03-24 22:10:00,
2013-03-24 15:15:00,66.4,33.2,29.94,West,263,0.0,6.0,29,0.00,,SKC,0.00,VWS V14.01,2013-03-24 22:15:00,
2013-03-24 15:20:00,66.9,31.9,29.94,WSW,246,0.0,6.0,27,0.00,,SKC,0.00,VWS V14.01,2013-03-24 22:20:00,
2013-03-24 15:25:00,67.1,32.9,29.94,WSW,256,0.0,6.0,28,0.00,,SKC,0.00,VWS V14.01,2013-03-24 22:25:00,
2013-03-24 15:30:00,67.1,32.9,29.93,West,268,0.0,6.0,28,0.00,,SKC,0.00,VWS V14.01,2013-03-24 22:30:00,
2013-03-24 15:31:00,67.1,32.9,29.93,West,268,1.0,1.0,28,0.00,,SKC,0.00,VWS V14.01,2013-03-24 22:31:00,
2013-03-24 15:36:00,67.1,32.9,29.93,West,278,0.0,5.0,28,0.00,,SKC,0.00,VWS V14.01,2013-03-24 22:36:00,
2013-03-24 15:41:00,66.8,32.7,29.93,West,260,0.0,5.0,28,0.00,,SKC,0.00,VWS V14.01,2013-03-24 22:41:00,
2013-03-24 15:46:00,67.1,32.9,29.93,NW,312,0.0,5.0,28,0.00,,SKC,0.00,VWS V14.01,2013-03-24 22:46:00,
2013-03-24 15:52:00,67.3,32.2,29.93,WNW,291,0.0,9.0,27,0.00,,SKC,0.00,VWS V14.01,2013-03-24 22:52:00,
2013-03-24 15:57:00,66.6,32.5,29.93,WNW,301,1.0,9.0,28,0.00,,SKC,0.00,VWS V14.01,2013-03-24 22:57:00,
2013-03-24 16:00:00,66.6,31.6,29.93,WNW,300,4.0,9.0,27,0.00,,SKC,0.00,VWS V14.01,2013-03-24 23:00:00,
2013-03-24 16:02:00,66.6,31.6,29.93,West,261,3.0,4.0,27,0.00,,SKC,0.00,VWS V14.01,2013-03-24 23:02:00,
2013-03-24 16:07:00,66.3,31.4,29.93,WNW,288,0.0,5.0,27,0.00,,SKC,0.00,VWS V14.01,2013-03-24 23:07:00,
2013-03-24 16:12:00,66.3,31.4,29.93,WNW,286,0.0,5.0,27,0.00,,SKC,0.00,VWS V14.01,2013-03-24 23:12:00,
2013-03-24 16:18:00,67.1,32.9,29.94,WNW,290,3.0,5.0,28,0.00,,SKC,0.00,VWS V14.01,2013-03-24 23:18:00,
2013-03-24 16:23:00,67.1,32.9,29.94,SW,223,2.0,5.0,28,0.00,,SKC,0.00,VWS V14.01,2013-03-24 23:23:00,
2013-03-24 16:28:00,66.8,32.7,29.94,WNW,295,4.0,12.0,28,0.00,,SKC,0.00,VWS V14.01,2013-03-24 23:28:00,
2013-03-24 16:30:00,66.4,31.4,29.93,WNW,300,4.0,12.0,27,0.00,,SKC,0.00,VWS V14.01,2013-03-24 23:30:00,
2013-03-24 16:33:00,66.3,32.2,29.93,NW,307,3.0,5.0,28,0.00,,SKC,0.00,VWS V14.01,2013-03-24 23:33:00,
2013-03-24 16:38:00,66.4,32.3,29.93,WSW,247,1.0,5.0,28,0.00,,SKC,0.00,VWS V14.01,2013-03-24 23:38:00,
2013-03-24 16:43:00,66.4,31.4,29.93,West,265,0.0,6.0,27,0.00,,SKC,0.00,VWS V14.01,2013-03-24 23:43:00,
2013-03-24 16:48:00,66.4,32.3,29.93,West,273,0.0,6.0,28,0.00,,SKC,0.00,VWS V14.01,2013-03-24 23:48:00,
2013-03-24 16:53:00,66.3,31.4,29.93,WNW,284,0.0,7.0,27,0.00,,SKC,0.00,VWS V14.01,2013-03-24 23:53:00,
2013-03-24 16:58:00,66.4,32.3,29.93,WNW,284,0.0,7.0,28,0.00,,SKC,0.00,VWS V14.01,2013-03-24 23:58:00,
2013-03-24 17:00:00,66.4,32.3,29.92,WNW,292,0.0,7.0,28,0.00,,SKC,0.00,VWS V14.01,2013-03-25 00:00:00,
2013-03-24 17:04:00,66.3,32.2,29.92,West,261,0.0,2.0,28,0.00,,SKC,0.00,VWS V14.01,2013-03-25 00:04:00,
2013-03-24 17:09:00,65.6,33.4,29.92,WSW,240,0.0,2.0,30,0.00,,SKC,0.00,VWS V14.01,2013-03-25 00:09:00,
2013-03-24 17:14:00,65.8,33.5,29.92,WSW,241,0.0,2.0,30,0.00,,SKC,0.00,VWS V14.01,2013-03-25 00:14:00,
2013-03-24 17:19:00,65.3,33.1,29.92,WSW,250,0.0,3.0,30,0.00,,SKC,0.00,VWS V14.01,2013-03-25 00:19:00,
2013-03-24 17:24:00,64.7,30.9,29.92,NW,313,3.0,5.0,28,0.00,,SKC,0.00,VWS V14.01,2013-03-25 00:24:00,
2013-03-24 17:29:00,64.3,32.2,29.93,WNW,295,0.0,5.0,30,0.00,,SKC,0.00,VWS V14.01,2013-03-25 00:29:00,
2013-03-24 17:30:00,64.3,33.0,29.93,WNW,295,0.0,5.0,31,0.00,,SKC,0.00,VWS V14.01,2013-03-25 00:30:00,
2013-03-24 17:34:00,64.2,33.0,29.93,WNW,291,0.0,2.0,31,0.00,,SKC,0.00,VWS V14.01,2013-03-25 00:34:00,
2013-03-24 17:39:00,63.9,32.7,29.93,WNW,296,0.0,3.0,31,0.00,,SKC,0.00,VWS V14.01,2013-03-25 00:39:00,
2013-03-24 17:45:00,63.4,32.3,29.92,NW,313,1.0,7.0,31,0.00,,SKC,0.00,VWS V14.01,2013-03-25 00:45:00,
2013-03-24 17:50:00,63.1,33.6,29.92,NW,313,0.0,7.0,33,0.00,,SKC,0.00,VWS V14.01,2013-03-25 00:50:00,
2013-03-24 17:55:00,62.7,34.7,29.92,NW,308,1.0,7.0,35,0.00,,SKC,0.00,VWS V14.01,2013-03-25 00:55:00,
2013-03-24 18:00:00,62.6,33.1,29.93,NW,310,0.0,0.0,33,0.00,,SKC,0.00,VWS V14.01,2013-03-25 01:00:00,
2013-03-24 18:05:00,62.3,33.6,29.93,NW,307,0.0,6.0,34,0.00,,SKC,0.00,VWS V14.01,2013-03-25 01:05:00,
2013-03-24 18:10:00,62.0,33.3,29.93,WNW,302,0.0,6.0,34,0.00,,SKC,0.00,VWS V14.01,2013-03-25 01:10:00,
2013-03-24 18:15:00,61.8,33.9,29.93,WNW,302,0.0,6.0,35,0.00,,SKC,0.00,VWS V14.01,2013-03-25 01:15:00,
2013-03-24 18:20:00,61.6,34.4,29.93,WNW,302,0.0,6.0,36,0.00,,SKC,0.00,VWS V14.01,2013-03-25 01:20:00,
2013-03-24 18:25:00,61.3,34.8,29.93,NW,304,0.0,6.0,37,0.00,,SKC,0.00,VWS V14.01,2013-03-25 01:25:00,
2013-03-24 18:30:00,61.0,34.6,29.93,NW,304,0.0,6.0,37,0.00,,SKC,0.00,VWS V14.01,2013-03-25 01:30:00,
2013-03-24 18:31:00,61.0,34.6,29.93,NW,304,0.0,0.0,37,0.00,,SKC,0.00,VWS V14.01,2013-03-25 01:31:00,
2013-03-24 18:36:00,60.7,35.6,29.93,NW,304,0.0,0.0,39,0.00,,SKC,0.00,VWS V14.01,2013-03-25 01:36:00,
2013-03-24 18:41:00,60.4,36.0,29.93,NW,304,0.0,0.0,40,0.00,,SKC,0.00,VWS V14.01,2013-03-25 01:41:00,
2013-03-24 18:46:00,60.1,36.3,29.93,NW,304,0.0,0.0,41,0.00,,SKC,0.00,VWS V14.01,2013-03-25 01:46:00,
2013-03-24 18:51:00,59.9,35.5,29.93,NW,304,0.0,0.0,40,0.00,,SKC,0.00,VWS V14.01,2013-03-25 01:51:00,
2013-03-24 18:56:00,59.6,37.1,29.93,NW,304,0.0,0.0,43,0.00,,SKC,0.00,VWS V14.01,2013-03-25 01:56:00,
2013-03-24 19:00:00,59.3,36.8,29.93,NW,304,0.0,0.0,43,0.00,,SKC,0.00,VWS V14.01,2013-03-25 02:00:00,
2013-03-24 19:01:00,59.2,37.3,29.93,NW,304,0.0,0.0,44,0.00,,SKC,0.00,VWS V14.01,2013-03-25 02:01:00,
2013-03-24 19:06:00,58.6,37.9,29.93,NW,304,0.0,0.0,46,0.00,,SKC,0.00,VWS V14.01,2013-03-25 02:06:00,
2013-03-24 19:11:00,58.1,38.0,29.93,NW,304,0.0,0.0,47,0.00,,SKC,0.00,VWS V14.01,2013-03-25 02:11:00,
2013-03-24 19:16:00,57.6,37.0,29.93,NW,304,0.0,0.0,46,0.00,,SKC,0.00,VWS V14.01,2013-03-25 02:16:00,
2013-03-24 19:22:00,57.0,38.0,29.93,NW,304,0.0,0.0,49,0.00,,SKC,0.00,VWS V14.01,2013-03-25 02:22:00,
2013-03-24 19:27:00,56.6,38.7,29.93,NW,304,0.0,0.0,51,0.00,,SKC,0.00,VWS V14.01,2013-03-25 02:27:00,
2013-03-24 19:30:00,56.2,38.3,29.94,NW,304,0.0,0.0,51,0.00,,SKC,0.00,VWS V14.01,2013-03-25 02:30:00,
2013-03-24 19:32:00,56.0,38.2,29.94,NW,304,0.0,0.0,51,0.00,,SKC,0.00,VWS V14.01,2013-03-25 02:32:00,
2013-03-24 19:37:00,55.4,38.6,29.94,NW,304,0.0,0.0,53,0.00,,SKC,0.00,VWS V14.01,2013-03-25 02:37:00,
2013-03-24 19:42:00,54.8,39.0,29.94,NW,304,0.0,0.0,55,0.00,,SKC,0.00,VWS V14.01,2013-03-25 02:42:00,
2013-03-24 19:47:00,54.4,39.0,29.94,NW,304,0.0,0.0,56,0.00,,SKC,0.00,VWS V14.01,2013-03-25 02:47:00,
2013-03-24 19:52:00,53.8,39.4,29.94,NW,304,0.0,0.0,58,0.00,,SKC,0.00,VWS V14.01,2013-03-25 02:52:00,
2013-03-24 19:58:00,53.3,38.9,29.94,NW,304,0.0,0.0,58,0.00,,SKC,0.00,VWS V14.01,2013-03-25 02:58:00,
2013-03-24 20:00:00,53.3,39.3,29.95,NW,304,0.0,0.0,59,0.00,,SKC,0.00,VWS V14.01,2013-03-25 03:00:00,
2013-03-24 20:03:00,53.1,39.2,29.95,NW,304,0.0,0.0,59,0.00,,SKC,0.00,VWS V14.01,2013-03-25 03:03:00,
2013-03-24 20:08:00,52.6,38.7,29.95,NW,304,0.0,0.0,59,0.00,,SKC,0.00,VWS V14.01,2013-03-25 03:08:00,
2013-03-24 20:13:00,52.3,38.8,29.95,NW,304,0.0,0.0,60,0.00,,SKC,0.00,VWS V14.01,2013-03-25 03:13:00,
2013-03-24 20:18:00,51.9,39.3,29.92,NW,304,0.0,0.0,62,0.00,,SKC,0.00,VWS V14.01,2013-03-25 03:18:00,
2013-03-24 20:23:00,51.3,38.7,29.92,NW,304,0.0,0.0,62,0.00,,SKC,0.00,VWS V14.01,2013-03-25 03:23:00,
2013-03-24 20:28:00,50.7,37.8,29.92,NW,304,0.0,0.0,61,0.00,,SKC,0.00,VWS V14.01,2013-03-25 03:28:00,
2013-03-24 20:30:00,50.7,38.2,29.93,NW,304,0.0,0.0,62,0.00,,SKC,0.00,VWS V14.01,2013-03-25 03:30:00,
2013-03-24 20:33:00,50.4,38.3,29.93,NW,304,0.0,0.0,63,0.00,,SKC,0.00,VWS V14.01,2013-03-25 03:33:00,
2013-03-24 20:38:00,49.9,38.2,29.93,NW,304,0.0,1.0,64,0.00,,SKC,0.00,VWS V14.01,2013-03-25 03:38:00,
2013-03-24 20:43:00,49.6,37.9,29.93,NW,304,0.0,1.0,64,0.00,,SKC,0.00,VWS V14.01,2013-03-25 03:43:00,
2013-03-24 20:49:00,49.5,37.8,29.94,NW,304,0.0,1.0,64,0.00,,SKC,0.00,VWS V14.01,2013-03-25 03:49:00,
2013-03-24 20:54:00,49.4,37.8,29.94,NW,304,0.0,1.0,64,0.00,,SKC,0.00,VWS V14.01,2013-03-25 03:54:00,
2013-03-24 20:59:00,49.1,37.9,29.94,NW,304,0.0,1.0,65,0.00,,SKC,0.00,VWS V14.01,2013-03-25 03:59:00,
2013-03-24 21:00:00,49.1,37.9,29.94,NW,304,0.0,0.0,65,0.00,,SKC,0.00,VWS V14.01,2013-03-25 04:00:00,
2013-03-24 21:01:00,48.9,37.7,29.94,NW,304,0.0,0.0,65,0.00,,SKC,0.00,VWS V14.01,2013-03-25 04:01:00,
2013-03-24 21:04:00,48.8,38.0,29.94,NW,304,0.0,0.0,66,0.00,,SKC,0.00,VWS V14.01,2013-03-25 04:04:00,
2013-03-24 21:05:00,48.8,38.0,29.94,NW,304,0.0,0.0,66,0.00,,SKC,0.00,VWS V14.01,2013-03-25 04:05:00,
2013-03-24 21:10:00,48.5,38.1,29.94,NW,304,0.0,0.0,67,0.00,,SKC,0.00,VWS V14.01,2013-03-25 04:10:00,
2013-03-24 21:15:00,48.2,38.2,29.93,NW,304,0.0,0.0,68,0.00,,SKC,0.00,VWS V14.01,2013-03-25 04:15:00,
2013-03-24 21:20:00,48.0,37.6,29.93,NW,304,0.0,0.0,67,0.00,,SKC,0.00,VWS V14.01,2013-03-25 04:20:00,
2013-03-24 21:25:00,48.0,37.6,29.93,NW,304,0.0,0.0,67,0.00,,SKC,0.00,VWS V14.01,2013-03-25 04:25:00,
2013-03-24 21:30:00,47.9,37.5,29.93,NW,304,0.0,0.0,67,0.00,,SKC,0.00,VWS V14.01,2013-03-25 04:30:00,
2013-03-24 21:35:00,47.7,37.7,29.93,NW,304,0.0,0.0,68,0.00,,SKC,0.00,VWS V14.01,2013-03-25 04:35:00,
2013-03-24 21:40:00,47.6,37.6,29.93,NW,304,0.0,0.0,68,0.00,,SKC,0.00,VWS V14.01,2013-03-25 04:40:00,
2013-03-24 21:46:00,47.4,36.6,29.94,NW,304,0.0,0.0,66,0.00,,SKC,0.00,VWS V14.01,2013-03-25 04:46:00,
2013-03-24 21:52:00,47.6,36.4,29.94,NW,304,0.0,0.0,65,0.00,,SKC,0.00,VWS V14.01,2013-03-25 04:52:00,
2013-03-24 21:57:00,47.7,37.3,29.94,NW,304,0.0,0.0,67,0.00,,SKC,0.00,VWS V14.01,2013-03-25 04:57:00,
2013-03-24 22:00:00,47.9,37.5,29.93,NW,304,0.0,0.0,67,0.00,,SKC,0.00,VWS V14.01,2013-03-25 05:00:00,
2013-03-24 22:02:00,47.9,37.1,29.93,NW,304,0.0,0.0,66,0.00,,SKC,0.00,VWS V14.01,2013-03-25 05:02:00,
2013-03-24 22:07:00,47.7,37.3,29.93,NW,304,0.0,0.0,67,0.00,,SKC,0.00,VWS V14.01,2013-03-25 05:07:00,
2013-03-24 22:12:00,47.4,37.4,29.93,NW,304,0.0,0.0,68,0.00,,SKC,0.00,VWS V14.01,2013-03-25 05:12:00,
2013-03-24 22:18:00,47.3,36.9,29.92,NW,304,0.0,0.0,67,0.00,,SKC,0.00,VWS V14.01,2013-03-25 05:18:00,
2013-03-24 22:23:00,47.1,37.1,29.92,NW,304,0.0,0.0,68,0.00,,SKC,0.00,VWS V14.01,2013-03-25 05:23:00,
2013-03-24 22:28:00,47.1,37.1,29.92,NW,304,0.0,0.0,68,0.00,,SKC,0.00,VWS V14.01,2013-03-25 05:28:00,
2013-03-24 22:30:00,47.1,37.1,29.92,NW,304,0.0,0.0,68,0.00,,SKC,0.00,VWS V14.01,2013-03-25 05:30:00,
2013-03-24 22:33:00,47.0,36.6,29.92,NW,304,0.0,0.0,67,0.00,,SKC,0.00,VWS V14.01,2013-03-25 05:33:00,
2013-03-24 22:38:00,47.0,37.0,29.92,NW,304,0.0,0.0,68,0.00,,SKC,0.00,VWS V14.01,2013-03-25 05:38:00,
2013-03-24 22:43:00,46.8,36.8,29.92,NW,304,0.0,0.0,68,0.00,,SKC,0.00,VWS V14.01,2013-03-25 05:43:00,
2013-03-24 22:48:00,46.8,36.8,29.92,NW,304,0.0,0.0,68,0.00,,SKC,0.00,VWS V14.01,2013-03-25 05:48:00,
2013-03-24 22:53:00,46.8,36.8,29.92,NW,304,0.0,0.0,68,0.00,,SKC,0.00,VWS V14.01,2013-03-25 05:53:00,
2013-03-24 22:58:00,46.8,37.2,29.92,NW,304,0.0,0.0,69,0.00,,SKC,0.00,VWS V14.01,2013-03-25 05:58:00,
2013-03-24 23:00:00,46.7,37.1,29.92,NW,304,0.0,0.0,69,0.00,,SKC,0.00,VWS V14.01,2013-03-25 06:00:00,
2013-03-24 23:04:00,46.7,37.1,29.92,NW,304,0.0,0.0,69,0.00,,SKC,0.00,VWS V14.01,2013-03-25 06:04:00,
2013-03-24 23:09:00,46.5,37.3,29.92,NW,304,0.0,0.0,70,0.00,,SKC,0.00,VWS V14.01,2013-03-25 06:09:00,
2013-03-24 23:14:00,46.5,37.3,29.92,NW,304,0.0,0.0,70,0.00,,SKC,0.00,VWS V14.01,2013-03-25 06:14:00,
2013-03-24 23:19:00,46.4,37.2,29.92,NW,304,0.0,0.0,70,0.00,,SKC,0.00,VWS V14.01,2013-03-25 06:19:00,
2013-03-24 23:24:00,46.4,37.2,29.92,NW,304,0.0,0.0,70,0.00,,SKC,0.00,VWS V14.01,2013-03-25 06:24:00,
2013-03-24 23:29:00,46.4,37.5,29.92,NW,304,0.0,0.0,71,0.00,,SKC,0.00,VWS V14.01,2013-03-25 06:29:00,
2013-03-24 23:30:00,46.4,37.5,29.92,NW,304,0.0,0.0,71,0.00,,SKC,0.00,VWS V14.01,2013-03-25 06:30:00,
2013-03-24 23:34:00,46.4,37.2,29.92,NW,304,0.0,0.0,70,0.00,,SKC,0.00,VWS V14.01,2013-03-25 06:34:00,
2013-03-24 23:39:00,46.2,37.3,29.92,NW,304,0.0,0.0,71,0.00,,SKC,0.00,VWS V14.01,2013-03-25 06:39:00,
2013-03-24 23:44:00,46.1,37.2,29.92,NW,304,0.0,0.0,71,0.00,,SKC,0.00,VWS V14.01,2013-03-25 06:44:00,
2013-03-24 23:49:00,46.1,37.2,29.92,NW,304,0.0,0.0,71,0.00,,SKC,0.00,VWS V14.01,2013-03-25 06:49:00,
2013-03-24 23:54:00,46.0,37.1,29.92,NW,304,0.0,0.0,71,0.00,,SKC,0.00,VWS V14.01,2013-03-25 06:54:00,